Weather History for Belize, Belize

Change the Weather History Date:

Saturday, January 14, 2012

  Actual Average Record
Temperature  
Mean Temperature 78 °F -  
Max Temperature 82 °F - 86 °F (1998)
Min Temperature 73 °F - 62 °F (2011)
Cooling Degree Days 12    
Growing Degree Days 28 (Base 50)    
Moisture  
Dew Point 72 °F    
Average Humidity 89    
Maximum Humidity 100    
Minimum Humidity 77    
Precipitation  
Precipitation 0.67 in 0.14 in - ()
Sea Level Pressure  
Sea Level Pressure 30.10 in    
Wind  
Wind Speed 5 mph ()    
Max Wind Speed 12 mph    
Max Gust Speed -    
Visibility 6.9 miles    
Events Fog , Rain    
Averages and records for this station are not official NWS values.
T = Trace of Precipitation, MM = Missing Value Source: Averaged Metar Reports

Daily Weather History Graph

Daily Weather History Graph

Search for Another Location

Airport:

Trip Planner

Search our weather history database for the weather conditions in past years. The results will help you decide how hot, cold, wet, or windy it might be!

Date:

Astronomy

Jan. 14, 2012 Rise Set
Actual Time 6:26 AM CST 5:37 PM CST
Civil Twilight 6:03 AM CST 6:01 PM CST
Nautical Twilight 5:36 AM CST 6:27 PM CST
Astronomical Twilight 5:10 AM CST 6:54 PM CST
Moon 10:53 PM CST (1/14) 10:10 AM CST (1/14)
Length of Visible Light 11h 57m
Length of Day
11h 11m
Waning Gibbous, 68% of the Moon is Illuminated
Jan 14
Waning Gibbous
Jan 16
Last Quarter
Jan 23
New
Jan 30
First Quarter
Feb 7
Full

Hourly Weather History & Observations

Time (CST) Temp. Heat Index Dew Point Humidity Pressure Visibility Wind Dir Wind Speed Gust Speed Precip Events Conditions
12:00 AM 74 °F - 73 °F 95% 30.07 in 5 mi ENE 9.2 mph - - Rain Light Rain Showers
12:00 AM 75.2 °F - 73.4 °F 94% 30.06 in 5.0 mi ENE 9.2 mph - N/A Rain Light Rain Showers
3:00 AM 73 °F - 72 °F 96% 30.06 in 12 mi Calm Calm - -   Partly Cloudy
3:00 AM 73.4 °F - 71.6 °F 94% 30.04 in 6.2 mi Calm Calm - N/A   Mostly Cloudy
6:00 AM 73 °F - 73 °F 99% 30.09 in 0 mi North 6.9 mph - - Fog Heavy Fog
6:00 AM 73.4 °F - 73.4 °F 100% 30.06 in 0.2 mi North 6.9 mph - N/A Fog Fog
7:00 AM 73.4 °F - 73.4 °F 100% 30.09 in 6.2 mi North 6.9 mph - N/A   Mostly Cloudy
8:00 AM 75.2 °F - 73.4 °F 94% 30.12 in 6.2 mi North 5.8 mph - N/A   Scattered Clouds
9:00 AM 77 °F - 74 °F 88% 30.15 in 12 mi North 6.9 mph - -   Partly Cloudy
9:00 AM 77.0 °F - 73.4 °F 89% 30.14 in 6.2 mi North 6.9 mph - N/A   Mostly Cloudy
10:00 AM 78.8 °F - 75.2 °F 89% 30.15 in 6.2 mi North 6.9 mph - N/A   Scattered Clouds
11:00 AM 73.4 °F - 71.6 °F 94% 30.15 in 3.1 mi Calm Calm - N/A Rain Light Rain Showers
12:00 PM 75 °F - 70 °F 81% 30.13 in 9 mi North 5.8 mph - - Rain Light Rain Showers
12:00 PM 75.2 °F - 69.8 °F 83% 30.12 in 6.2 mi North 5.8 mph - N/A   Mostly Cloudy
1:00 PM 75.2 °F - 71.6 °F 89% 30.09 in 6.2 mi Calm Calm - N/A   Mostly Cloudy
2:00 PM 82.4 °F 89.5 °F 75.2 °F 79% 30.07 in 6.2 mi NNE 10.4 mph - N/A   Scattered Clouds
3:00 PM 77 °F - 71 °F 77% 30.06 in 14 mi NE 11.5 mph - -  
4:00 PM 75.2 °F - 69.8 °F 83% 30.06 in 6.2 mi NE 11.5 mph - N/A   Partly Cloudy
5:00 PM 75.2 °F - 69.8 °F 83% 30.06 in 6.2 mi ENE 9.2 mph - N/A   Scattered Clouds
6:00 PM 79 °F - 73 °F 78% 30.10 in 12 mi ENE 8.1 mph - -  
9:00 PM 76 °F - 73 °F 88% 30.16 in 12 mi WNW 3.5 mph - -   Partly Cloudy
9:00 PM 75.2 °F - 73.4 °F 94% 30.15 in 6.2 mi WNW 3.5 mph - N/A   Partly Cloudy